Location: Unspecified
(0.0000°N, 0.0000°E)
Time: 01:36:48
(UTC+00:00)

Vanguard 1 - Pass Details

Date: 15 December 2017
Orbit: 650 x 3833 km, 34.3° (Epoch: 23 June)

Event Time Altitude Azimuth Distance (km) Brightness Sun altitude
Rises 16:47:32 0° 312° (NW) 4,026 13.5 15.5°
Reaches altitude 10° 16:50:51 10° 317° (NW) 2,703 12.6 14.8°
Maximum altitude 16:56:37 55° 34° (NE) 872 9.7 13.5°
Drops below altitude 10° 17:00:57 10° 113° (ESE) 2,051 11.4 12.5°
Sets 17:03:09 0° 117° (ESE) 2,959 12.2 12.0°
